SCOUT X-4 DEB, 2088

Orbit data source: Space-Track

SCOUT X-4 DEB, 2088 is space debris in LEO originally from a launch on Fri, 19 Nov 1965 UTC launched from the Wallops Island (WLPIS). Debris objects in space refer to the collection of defunct objects orbiting the Earth. Examples of debris include non-operational satellites, rocket bodies, and fragments generated from explosions, collisions, or faulty payload assembly.

Loading next visibility...
Identifier
2088, 1965-093D
Orbit
LEO
Country
Flag of USUS
Related business
Manufacturer
Unknown
Mission
Spacecraft
Bus & Motor
Unknown
Mass
Unknown
Launch date (UTC)
1965-11-19 (60 years ago)
Launch vehicle
Unknown
Launch site
Wallops Island (WLPIS)
Object type
Payload
Rocket body
Debris
Shape & HBR
Unknown
Radar Cross Section
Small (<0.1 m²)

Expand to show TLE details & history
Last TLE update: 13 hours ago

TLE from 13 hours ago
0 SCOUT X-4 DEB
1 02088U 65093D   25242.87345456  .00002266  00000-0  46949-3 0  9999
2 02088  59.7150 129.8990 0084248 143.0689 217.6200 14.61148815111451
Epoch: 2025-08-30T20:57Z
TLE epoch observation values (Epoch: 2025-08-30T20:57:46.473Z)
Latitude
-0.00006°
Longitude
-163.84618°
Altitude
738.345 km
Speed
7.461 km/s
True Right ascension
08h 39m 35s
True Declination
0° 00' 00"
Sunlit
Object was in daylight at epoch
Visualization orbit readout
Latitude
Unknown
Longitude
Unknown
Altitude
Unknown
Speed
Unknown
Apparent Right ascension
Unknown
Apparent Declination
Unknown
Sunlit
N/A
Visualization observer readout
Local Sidereal Time
02:04:54
Azimuth
Unknown
Elevation
Unknown
Doppler factor
Unknown
Orbital elements
Apogee altitude
748.27 km
Perigee altitude
629.196 km
Semi-major axis
7,066.87 km
Eccentricity
0.00842
Inclination
59.715°
RAAN
129.899°
Arg. of periapsis
143.0689°
True anomaly
217.03558°
Mean anomaly
217.62°
Eccentric anomaly
217.3273°
Mean motion
3.65344 °/min
Orbital period
98.54 mins
BSTAR
0.00046949
Loading maneuver chart data...
Computing Atmospheric mass density...
Loading historical data...
Loading historical data...
Loading historical data...
Loading historical data...
Loading historical data...
Loading historical data...
Loading historical data...
Other satellites on launch #93 in the year 1965 (1965-11-19 UTC)

Documentation

Showing up to 5 results
|